GFSNW_925_temp_090.txt.gz
Temp
3 3 3 3 3 4 3 3 3 7 7 3 3 5 7 10 11 12 12 13 14 14 13 14 15 13 15 15 15 14 14 13 12 14 16 17 15 13 12 14 14 15 15 16
3 3 3 3 3 3 3 3 2 6 7 3 5 6 8 9 10 11 11 11 13 13 13 13 14 14 15 15 15 14 14 13 11 14 15 16 13 14 13 13 13 14 15 16
3 3 3 3 3 3 3 1 2 1 3 3 5 7 7 8 11 11 12 12 12 12 12 13 14 14 15 14 15 14 14 13 12 12 13 12 12 12 12 13 13 14 15 16
3 3 3 3 3 3 3 1 -0 4 4 4 4 5 7 8 9 11 12 12 12 11 11 11 12 14 13 14 14 15 13 12 13 14 14 13 14 13 13 12 13 14 15 16
3 3 4 3 3 3 2 1 2 3 3 6 5 5 7 7 9 9 10 10 10 10 9 10 11 12 12 12 13 12 12 11 13 13 15 14 15 14 14 13 13 14 14 15
3 4 4 3 3 3 3 2 2 2 3 4 4 6 8 8 9 10 11 11 10 9 10 9 10 11 11 12 12 11 12 11 11 12 14 14 14 16 14 15 14 14 13 15
3 4 4 4 3 3 3 3 3 1 1 3 5 7 8 8 9 9 10 11 10 10 10 10 10 11 11 11 11 11 11 11 11 10 12 12 16 17 18 15 16 16 17 16
3 3 4 4 4 3 3 4 3 2 -0 4 5 6 7 7 7 9 10 10 8 8 9 8 8 9 10 10 11 10 10 10 8 9 11 13 15 17 17 15 15 16 15 15
3 3 4 4 4 3 2 3 4 2 3 2 6 5 6 5 5 5 8 7 6 7 6 6 8 8 10 11 11 11 11 10 9 8 10 10 14 16 18 17 13 15 15 14
4 4 4 4 4 4 3 2 3 3 1 2 5 5 5 5 5 4 5 6 6 6 5 5 7 8 11 9 11 10 9 8 9 9 8 11 14 14 16 15 13 13 13 13
4 4 4 4 4 4 3 3 3 3 1 4 5 5 5 6 5 5 5 4 6 5 6 6 7 5 9 10 11 11 10 9 9 8 9 10 11 14 12 12 12 12 12 11
4 4 5 5 5 4 3 3 2 3 2 3 5 6 6 6 6 4 5 6 5 6 6 6 6 5 5 8 8 10 10 9 9 10 10 10 11 10 11 11 10 10 10 10
5 5 5 5 5 4 4 3 3 2 2 3 3 4 6 7 7 8 4 5 6 6 5 6 7 7 7 7 8 8 7 8 10 10 9 9 9 9 9 9 8 8 8 7
5 5 5 5 5 5 4 3 2 2 3 2 4 6 5 6 7 7 7 7 7 7 5 5 6 6 8 8 9 8 8 9 7 9 8 8 7 7 7 8 7 6 5 4
4 5 5 5 5 5 4 4 2 2 4 2 3 6 7 8 7 6 7 6 6 4 5 5 6 6 7 8 7 6 5 5 7 7 5 6 5 5 5 5 5 4 3 2
4 4 4 4 5 5 3 1 2 2 2 4 4 5 6 7 7 5 5 6 4 4 5 6 7 7 6 7 7 4 4 3 3 4 3 4 4 5 5 6 4 3 1 0
4 4 4 4 5 4 4 3 3 2 2 3 3 4 5 6 5 4 4 5 5 6 6 6 7 7 6 5 4 3 3 2 2 1 4 4 4 3 3 4 3 1 -0 -1
4 5 4 5 4 3 3 5 3 3 2 3 2 2 4 6 4 5 4 4 5 6 6 6 7 6 5 2 2 2 2 2 2 2 1 1 2 2 1 1 1 -0 -1 -2
5 5 4 4 3 3 4 5 3 3 3 4 3 1 3 5 4 5 5 5 5 5 5 5 6 3 2 1 0 0 0 0 1 1 0 0 0 -0 -1 -1 -2 -2 -3 -3
4 3 2 2 3 3 3 3 3 3 4 3 4 3 5 4 5 5 5 4 6 6 5 4 2 1 -1 -1 -1 -1 -1 -1 -1 -1 -1 -1 -1 -2 -3 -4 -4 -4 -5 -6
4 3 4 4 3 4 3 3 4 4 4 3 3 4 5 3 5 5 3 5 5 6 6 6 3 1 -1 -2 -2 -3 -3 -3 -3 -4 -4 -4 -3 -4 -4 -5 -6 -6 -7 -8
4 4 3 3 4 4 4 4 4 4 4 4 4 5 5 4 4 5 5 5 5 6 5 2 -1 -1 -2 -2 -3 -4 -4 -4 -5 -5 -5 -5 -6 -6 -6 -6 -7 -8 -9 -10
5 3 2 4 2 4 1 4 5 5 4 4 5 4 4 3 5 4 4 5 4 4 1 -1 -2 -2 -3 -3 -4 -5 -5 -6 -6 -7 -7 -7 -7 -8 -7 -8 -9 -10 -11 -11
3 2 -2 -1 -3 -1 -1 2 2 2 3 4 2 4 4 4 4 4 5 3 3 4 -3 -3 -4 -4 -5 -5 -5 -6 -8 -9 -9 -10 -10 -11 -11 -11 -11 -11 -11 -11 -12 -12
0 -0 -2 -3 -1 -1 1 1 2 1 2 3 4 3 3 2 2 3 3 4 -3 -3 -4 -4 -5 -6 -6 -6 -7 -9 -10 -11 -11 -10 -11 -11 -11 -11 -11 -11 -11 -11 -11 -12
-1 -1 -0 -1 -2 -2 -0 0 0 1 1 2 2 1 1 1 2 0 -1 0 -4 -6 -8 -6 -7 -8 -8 -8 -8 -9 -9 -9 -9 -10 -10 -11 -11 -11 -12 -11 -12 -12 -12 -12
-1 -3 -4 -5 -5 -4 -1 -1 -1 -1 1 -1 -0 -1 0 1 -2 -4 -4 -6 -7 -5 -5 -7 -9 -9 -10 -9 -7 -8 -8 -8 -9 -9 -10 -10 -11 -11 -11 -12 -12 -12 -12 -13

GFSNW_925_temp_096.txt.gz
Temp
3 3 3 3 4 3 3 3 2 4 3 3 1 -0 5 7 6 7 6 6 8 8 10 12 11 11 13 14 14 13 13 11 12 13 13 13 13 13 13 13 13 13 14 14
3 3 3 4 3 3 3 2 1 3 4 2 3 3 5 7 8 9 7 7 7 7 9 10 10 10 12 13 14 13 13 11 12 12 13 13 12 13 12 11 11 12 12 13
2 3 3 3 3 3 3 1 0 -1 3 3 3 4 4 6 8 9 9 7 6 8 9 11 10 9 12 13 13 13 13 11 12 11 11 12 11 12 13 12 12 12 13 13
2 3 3 3 3 3 3 2 -0 1 1 3 3 4 5 5 7 8 8 6 7 8 8 8 9 11 11 12 12 12 12 11 12 12 12 12 12 12 12 13 12 12 13 12
2 2 3 3 3 3 2 -2 1 3 2 3 3 4 4 5 6 6 7 8 9 9 9 9 8 9 9 10 11 11 11 10 11 11 12 12 11 12 12 13 13 13 13 13
2 2 3 3 3 3 1 1 1 1 2 3 4 4 4 4 5 5 8 9 9 8 8 9 9 9 9 10 10 10 11 10 10 10 11 11 10 12 12 13 13 13 12 13
2 3 3 3 3 3 3 2 1 -1 -0 2 4 4 5 6 6 6 8 8 8 7 6 8 9 9 9 9 9 9 10 10 9 9 10 8 12 13 13 13 13 13 13 13
2 2 3 3 3 3 3 3 2 1 0 2 3 4 5 5 5 6 6 7 6 5 6 8 9 8 10 10 10 9 9 9 8 8 9 10 11 13 12 12 13 13 13 12
2 2 3 3 3 3 2 2 3 1 0 1 3 3 4 4 4 4 6 6 5 5 5 5 8 8 10 10 10 8 8 8 9 7 8 7 11 11 11 12 11 11 13 12
2 2 3 3 3 4 3 2 3 1 1 1 2 3 5 4 4 4 4 5 6 5 4 6 7 8 9 9 10 10 7 7 8 8 9 9 10 9 11 12 10 9 10 11
2 2 3 3 4 4 3 3 2 2 -1 0 3 3 3 3 4 4 4 3 5 4 5 5 6 6 8 8 10 10 9 7 7 9 8 8 8 10 10 9 7 8 8 8
2 2 3 3 4 4 3 3 3 1 1 1 3 4 5 5 4 2 3 4 5 5 6 6 6 6 5 6 8 8 7 8 9 8 8 8 8 7 7 7 5 4 5 4
2 2 3 4 4 4 4 3 2 1 2 2 1 3 5 5 5 5 3 2 4 5 4 4 6 6 6 5 5 8 8 6 7 7 7 7 6 5 5 4 3 2 2 2
2 3 3 4 4 4 4 3 2 2 2 2 2 4 4 5 5 5 5 5 5 5 5 5 5 5 6 7 7 6 5 5 4 7 5 5 4 4 3 2 2 1 -0 -1
2 3 4 5 5 5 4 3 3 3 4 1 2 4 5 6 5 4 4 5 4 4 5 4 3 3 5 6 6 4 4 3 3 5 3 4 3 2 2 1 0 -1 -1 -1
3 3 4 4 5 4 4 1 2 3 3 3 3 4 5 4 4 3 3 3 4 5 5 5 6 7 6 6 2 3 2 2 1 2 2 2 1 1 0 -0 -1 -1 -2 -3
2 3 4 4 4 4 3 3 4 2 3 3 3 2 3 3 3 2 2 3 4 3 5 4 4 5 6 3 1 1 1 1 0 -0 1 2 -0 -1 -1 -0 -1 -2 -4 -4
3 3 4 4 4 3 3 3 4 2 2 3 3 1 2 4 2 2 1 2 3 4 4 4 4 4 3 2 0 -0 -0 1 0 -1 0 -0 -1 -2 -2 -3 -2 -3 -3 -4
3 3 3 3 3 2 3 4 3 2 2 3 3 0 -0 4 4 4 3 2 2 2 4 4 5 2 -0 -0 -0 -1 -2 -2 -2 -1 -1 -1 -2 -3 -4 -4 -4 -4 -5 -5
3 3 2 1 0 3 2 1 2 2 2 3 2 -1 3 4 4 4 4 3 1 5 4 2 2 -3 -2 -2 -3 -3 -3 -4 -3 -2 -2 -3 -2 -4 -5 -5 -6 -6 -7 -8
2 0 2 2 3 4 2 2 3 3 3 3 2 3 3 3 3 4 3 5 5 5 5 4 1 -0 -2 -3 -4 -4 -4 -4 -5 -5 -4 -4 -4 -5 -5 -7 -7 -8 -9 -10
2 3 2 3 3 3 3 3 3 4 3 2 4 3 4 3 3 4 3 4 4 5 2 1 -2 -3 -3 -4 -4 -5 -5 -5 -6 -6 -6 -6 -6 -7 -8 -9 -10 -11 -11 -12
4 3 2 3 1 3 2 3 3 -0 3 3 4 4 4 2 2 4 5 5 4 1 -0 -1 -3 -3 -4 -4 -5 -6 -6 -6 -7 -7 -8 -8 -9 -10 -9 -10 -11 -12 -12 -13
1 1 1 1 -2 -1 -2 0 1 2 3 4 4 4 4 3 3 3 4 1 2 1 -2 -3 -4 -5 -5 -5 -6 -7 -9 -10 -10 -11 -11 -12 -12 -13 -12 -11 -11 -11 -12 -13
-1 -0 -3 -2 -3 -2 0 1 2 2 3 3 2 1 2 -0 1 -1 1 1 -1 -2 -3 -7 -6 -7 -7 -8 -8 -11 -11 -13 -13 -12 -13 -13 -12 -13 -13 -12 -12 -12 -13 -13
-2 -3 -2 -2 -1 -0 0 1 1 0 2 1 1 1 0 -1 -1 0 -1 2 -1 -5 -10 -8 -6 -7 -9 -10 -10 -11 -11 -11 -12 -12 -12 -12 -12 -12 -13 -12 -12 -12 -12 -13
-3 -5 -5 -8 -7 -2 -2 -1 -1 -1 2 1 -1 0 1 0 -2 -3 -6 -6 -8 -8 -8 -12 -12 -10 -11 -13 -11 -11 -11 -11 -11 -11 -11 -12 -12 -12 -12 -13 -13 -13 -13 -13

GFSNW_925_temp_102.txt.gz
Temp
3 3 3 3 4 4 4 6 6 4 4 7 7 7 7 7 9 10 9 9 8 6 7 7 9 13 15 15 17 16 16 17 15 16 16 18 17 17 17 17 14 16 16 19
3 3 3 3 4 4 4 6 7 5 4 6 7 8 8 8 8 8 8 8 7 7 7 8 10 12 14 15 16 15 16 16 14 14 15 17 16 17 15 12 14 15 17 20
2 3 3 3 3 4 4 5 5 7 6 5 6 6 7 8 9 9 8 7 6 7 8 8 9 10 12 13 14 12 15 15 17 17 16 16 15 16 16 16 15 16 17 19
2 2 3 3 3 3 4 4 5 5 5 7 6 7 8 8 6 7 6 7 8 7 8 8 8 8 10 11 12 12 14 14 15 15 15 16 16 16 16 16 16 15 18 18
2 2 2 3 3 3 5 5 6 6 6 6 6 6 7 7 5 5 7 8 9 10 9 8 8 8 9 10 12 12 12 13 15 14 15 15 15 16 16 16 16 17 17 18
2 2 2 3 3 3 5 3 4 6 5 8 8 7 6 6 7 9 10 9 10 10 8 8 9 10 10 11 12 13 14 14 14 13 14 14 14 15 15 16 17 17 15 16
2 2 2 3 3 4 4 5 6 6 6 7 7 7 7 7 8 8 9 9 9 10 9 11 12 12 12 12 13 13 14 14 14 13 13 13 14 16 16 16 15 14 14 11
2 2 2 3 3 3 4 4 5 7 6 7 7 7 7 8 9 9 8 9 9 9 10 12 13 13 13 13 13 13 14 14 13 13 14 14 14 13 13 13 14 11 10 10
2 2 2 3 3 3 2 2 4 5 6 8 7 7 7 8 8 9 9 10 9 10 10 11 11 11 12 13 13 13 13 13 14 13 12 12 12 13 14 14 13 10 9 8
2 2 2 2 3 3 2 2 2 2 5 8 6 8 7 8 8 8 9 8 9 10 10 11 11 11 12 12 12 12 12 12 12 12 12 13 11 13 14 13 9 7 7 5
2 2 2 2 3 3 3 2 2 2 4 7 6 7 7 8 8 7 8 9 9 8 9 9 9 10 11 12 11 11 12 12 12 12 11 11 7 13 11 7 5 5 5 5
1 2 2 2 2 3 3 2 2 2 2 6 4 5 5 6 7 7 8 7 7 8 7 7 7 9 9 9 11 12 9 8 9 8 7 5 4 4 3 3 3 3 3 3
1 1 1 2 2 3 2 3 2 1 2 3 4 7 7 5 5 6 7 8 8 8 8 6 6 8 9 9 10 10 8 9 8 7 5 4 4 3 2 2 2 2 1 2
1 1 1 2 2 3 3 2 2 2 2 4 8 5 6 5 5 5 6 7 7 7 8 7 7 9 9 9 9 9 8 8 5 6 5 4 4 3 2 2 2 2 2 1
1 1 1 1 2 3 3 3 3 2 4 6 8 7 6 5 5 5 5 6 7 7 8 7 8 9 9 9 8 8 7 4 6 6 3 4 2 2 1 1 0 0 1 1
1 0 1 1 2 3 3 1 2 2 3 4 6 7 6 5 5 5 6 7 7 7 8 8 9 9 8 8 8 4 4 3 2 3 2 1 0 0 0 -0 -1 1 1 0
1 1 1 2 3 3 3 4 5 2 2 3 5 7 6 5 5 5 6 6 7 7 8 7 8 9 8 6 8 3 3 2 1 1 1 1 1 1 0 0 -0 -1 -2 -2
1 1 1 2 2 3 3 3 3 2 2 2 5 6 6 5 6 6 6 7 7 8 8 6 7 7 6 6 3 3 3 2 1 1 0 -0 -1 -0 0 -0 -0 -0 -1 -2
1 1 1 2 1 2 3 4 3 2 3 5 4 6 6 6 5 5 4 7 5 7 6 7 7 7 7 5 4 3 2 2 2 0 -0 -1 -2 -1 -1 -1 -1 -2 -3 -3
1 1 1 2 2 3 2 2 2 3 2 3 5 6 6 6 5 5 5 6 7 6 6 6 6 7 1 2 3 2 1 1 1 1 1 0 -1 -2 -2 -3 -4 -4 -5 -5
1 1 2 3 3 3 3 3 4 3 4 3 5 6 6 6 6 6 6 6 7 6 7 6 6 7 1 -0 0 0 -0 -1 -1 -1 -1 -2 -2 -2 -3 -4 -5 -6 -7 -8
2 2 2 2 3 3 4 5 4 5 6 5 4 4 7 6 7 7 6 6 6 6 6 6 7 1 -0 -0 -1 -1 -2 -2 -2 -2 -3 -4 -4 -5 -5 -6 -7 -8 -10 -11
1 2 2 2 3 5 5 5 5 6 5 5 5 4 5 4 5 5 5 5 5 5 6 8 4 0 -1 -1 -1 -2 -3 -4 -4 -4 -5 -5 -6 -6 -7 -8 -9 -10 -11 -12
1 3 3 5 4 6 7 8 7 6 5 5 5 5 5 4 4 5 6 6 5 6 6 7 2 -1 -2 -2 -3 -4 -6 -6 -6 -7 -8 -9 -10 -11 -12 -12 -12 -12 -13 -14
2 3 5 3 3 2 3 3 4 5 5 5 4 5 6 5 5 5 5 5 6 7 7 3 0 -2 -3 -4 -5 -7 -8 -9 -9 -9 -10 -11 -11 -11 -12 -13 -12 -13 -14 -14
0 1 1 1 3 2 3 3 3 4 5 6 7 5 5 5 6 5 6 7 8 5 1 -0 -2 -3 -4 -5 -6 -8 -8 -9 -9 -10 -10 -11 -11 -10 -11 -12 -13 -13 -13 -13
-0 -0 -1 0 3 3 2 2 2 2 6 6 6 5 6 4 5 5 5 6 2 -1 -1 -1 -2 -4 -6 -7 -8 -9 -9 -9 -9 -10 -10 -10 -11 -11 -10 -9 -11 -11 -12 -13

GFSNW_925_temp_105.txt.gz
Temp
3 3 3 4 4 5 5 9 9 8 7 9 11 10 11 11 11 12 11 10 8 7 8 9 9 13 19 20 19 18 19 17 15 15 20 21 20 19 19 18 18 19 19 19
3 3 3 4 4 4 8 11 11 8 8 9 10 11 11 12 11 11 10 8 7 7 7 8 7 13 16 17 18 18 19 17 15 13 17 18 17 19 19 17 17 18 18 18
3 3 3 3 4 4 6 8 8 11 11 9 10 10 11 11 11 10 10 7 7 8 8 7 8 11 12 15 15 14 16 17 16 16 18 18 17 17 18 18 17 18 19 20
3 3 3 3 4 4 5 8 8 9 9 10 9 10 11 10 9 10 10 8 11 9 8 8 8 8 12 14 13 15 16 14 14 17 18 18 17 17 17 17 18 17 18 18
2 2 3 3 3 4 7 4 10 10 10 10 10 9 10 10 10 9 9 11 11 12 11 9 8 10 10 9 11 12 14 15 17 16 17 18 17 18 18 18 18 19 19 16
2 2 2 3 4 4 8 8 8 10 9 11 11 9 9 10 11 11 12 11 11 11 10 11 11 13 12 13 13 11 11 15 15 14 16 17 16 16 18 18 15 15 13 13
2 2 2 3 3 4 6 8 9 10 9 11 10 10 11 11 11 10 12 11 10 12 12 13 14 13 14 15 14 15 15 14 16 14 15 14 16 18 17 16 14 13 11 10
2 2 2 3 3 4 5 7 8 9 8 11 10 10 10 12 12 12 12 11 11 12 13 13 14 14 13 15 15 15 16 16 15 15 16 15 15 15 15 15 10 12 11 9
2 2 2 3 3 3 4 6 5 7 7 10 9 10 10 11 11 12 12 12 12 12 14 13 13 13 14 14 15 16 15 16 16 15 15 13 11 14 15 16 10 9 10 8
2 2 2 2 3 3 3 3 4 6 6 10 9 10 9 10 11 11 12 11 11 12 12 12 13 13 14 13 14 14 14 14 14 14 15 12 7 9 13 12 8 6 8 8
2 2 2 2 2 3 3 4 4 5 6 9 9 9 9 10 11 10 11 11 10 9 10 10 10 11 13 13 14 13 13 12 13 14 14 11 5 11 9 6 4 5 5 6
2 2 2 2 2 2 3 3 3 2 5 8 6 7 7 8 9 9 10 9 9 9 9 9 9 10 12 12 10 13 11 10 10 8 7 4 4 4 3 5 5 4 4 5
2 2 2 2 2 2 2 3 2 2 3 5 8 10 9 8 7 8 9 11 10 9 9 7 8 9 12 10 11 11 10 12 9 7 5 5 5 5 4 5 4 4 4 4
2 1 2 2 2 2 2 2 2 2 3 5 9 9 9 8 8 8 8 9 9 10 11 8 9 10 12 11 11 10 10 10 6 6 5 5 5 4 4 3 4 4 5 4
1 1 2 1 1 2 3 3 3 2 5 6 8 10 9 8 8 8 8 8 9 10 10 9 9 11 11 11 11 7 9 6 7 6 4 5 3 3 3 3 3 3 4 4
1 1 1 1 2 3 3 1 2 3 3 4 7 9 9 8 8 8 8 9 9 10 9 9 10 11 10 9 9 6 6 5 4 4 3 2 2 2 2 2 2 3 3 3
1 1 1 1 2 2 3 4 4 2 2 3 6 9 7 8 8 9 9 8 9 9 8 9 10 10 9 9 9 5 4 3 3 3 3 3 3 2 2 2 3 2 2 1
1 1 1 1 2 3 3 4 3 2 3 3 6 8 8 7 7 7 8 8 8 9 9 9 9 9 9 7 6 5 4 4 3 3 3 1 1 1 2 3 3 2 1 0
1 1 1 1 2 1 3 3 3 3 4 5 5 7 7 8 6 6 7 7 6 9 7 7 10 9 8 6 7 6 5 5 4 3 2 1 1 1 1 2 1 1 -1 -2
1 1 1 1 1 3 3 2 3 3 3 4 6 9 6 7 6 6 6 7 7 7 7 8 7 9 5 6 7 6 4 4 4 4 3 2 1 1 -0 -1 -1 -2 -3 -3
1 1 2 3 3 3 3 4 4 4 4 5 6 9 7 9 7 7 8 7 8 7 8 7 7 8 3 4 4 4 3 3 3 3 2 2 2 0 -1 -2 -3 -4 -5 -6
1 2 2 2 3 4 5 5 6 6 8 8 6 8 9 7 9 8 8 7 7 7 8 7 8 3 3 3 2 2 2 2 1 0 -0 -1 -2 -2 -3 -4 -5 -7 -8 -9
1 2 3 3 4 5 5 5 7 7 8 7 7 6 6 7 8 6 7 6 7 8 7 8 5 3 2 2 2 1 -0 -1 -1 -2 -2 -3 -3 -4 -4 -6 -7 -8 -10 -11
2 3 4 4 5 6 8 10 9 9 8 7 7 5 7 5 6 6 6 7 7 7 8 8 3 1 1 1 -0 -1 -3 -3 -3 -4 -5 -7 -8 -9 -10 -11 -11 -11 -11 -13
2 3 5 5 6 5 5 5 7 8 8 7 6 6 6 5 5 5 7 6 7 8 9 5 2 0 -1 -2 -3 -4 -6 -6 -6 -7 -8 -9 -10 -10 -10 -10 -11 -12 -12 -12
1 1 3 3 5 3 5 4 5 7 7 8 9 7 6 6 8 6 7 8 9 7 4 2 0 -1 -2 -3 -4 -6 -6 -6 -7 -8 -8 -9 -9 -9 -9 -10 -11 -11 -12 -12
1 2 1 2 5 5 4 5 4 6 7 7 8 7 7 8 7 7 9 8 5 3 1 1 -0 -2 -3 -5 -6 -7 -7 -6 -7 -7 -8 -8 -9 -9 -8 -8 -9 -9 -11 -12